Location: Plainartige
(45.6866°N, 1.7993°E)
Time: 02:02:55
(UTC+00:00)

BEESAT - Pass Details

Date: 02 July 2022
Orbit: 700 x 706 km, 98.6° (Epoch: 11 August)

Event Time Altitude Azimuth Distance (km) Brightness Sun altitude
Rises 20:57:22 0° 8° (N) 3,105 ? -10.1°
Reaches altitude 10° 20:59:42 10° 2° (N) 2,184 ? -10.4°
Maximum altitude 21:04:15 45° 291° (WNW) 956 ? -10.9°
Drops below altitude 10° 21:08:47 10° 219° (SW) 2,172 ? -11.4°
Sets 21:11:06 0° 213° (SSW) 3,087 ? -11.7°
